This is the latest recevied weather packets stored in our database for station/object AA0RD-13. If no packets are shown the sender has not sent any weather packets the latest 10 day(s).
| Time | Temp. | Humidity | Pressure | Rain* | Wind** | Luminosity | Snow |
|---|---|---|---|---|---|---|---|
| 1777779218 | 22.22° C | 45% | 1013.5 hPa | 0 mm | - | - | - |
| 1777777406 | 21.67° C | 48% | 1013.7 hPa | 0 mm | - | - | - |
| 1777775907 | 20.56° C | 55% | 1013.7 hPa | 0 mm | - | - | - |
| 1777775599 | 21.11° C | 54% | 1013.6 hPa | 0 mm | - | - | - |
| 1777774425 | 21.11° C | 56% | 1013.7 hPa | 0 mm | - | - | - |
| 1777773806 | 20° C | 61% | 1013.8 hPa | 0 mm | - | - | - |
| 1777771708 | 19.44° C | 58% | 1014.1 hPa | 0 mm | - | - | - |
| 1777771399 | 19.44° C | 58% | 1014.1 hPa | 0 mm | - | - | - |
| 1777771111 | 20° C | 58% | 1014.3 hPa | 0 mm | - | - | - |
| 1777769900 | 20° C | 58% | 1014.2 hPa | 0 mm | - | - | - |
| 1777768395 | 20° C | 59% | 1014.3 hPa | 0 mm | - | - | - |
| 1777768107 | 19.44° C | 59% | 1014.4 hPa | 0 mm | - | - | - |
| 1777766608 | 19.44° C | 58% | 1014.4 hPa | 0 mm | - | - | - |
| 1777766011 | 19.44° C | 58% | 1014.6 hPa | 0 mm | - | - | - |
| 1777765703 | 19.44° C | 57% | 1014.6 hPa | 0 mm | - | - | - |
| 1777765395 | 19.44° C | 57% | 1014.7 hPa | 0 mm | - | - | - |
| 1777764512 | 19.44° C | 57% | 1014.8 hPa | 0 mm | - | - | - |
| 1777761506 | 20° C | 59% | 1015.7 hPa | 0 mm | - | - | - |
| 1777761198 | 20° C | 59% | 1015.8 hPa | 0 mm | - | - | - |
| 1777759714 | 18.89° C | 64% | 1016.3 hPa | 0 mm | - | - | - |
| 1777757598 | 16.11° C | 77% | 1016.5 hPa | 0 mm | - | - | - |
| 1777757310 | 16.11° C | 79% | 1016.5 hPa | 0 mm | - | - | - |
| 1777757001 | 15.56° C | 81% | 1016.5 hPa | 0 mm | - | - | - |
| 1777756714 | 15.56° C | 80% | 1016.6 hPa | 0 mm | - | - | - |
| 1777754905 | 15.56° C | 79% | 1016.8 hPa | 0 mm | - | - | - |
* Rain latest hour (hover to see other rain measurements)
** Current wind speed in m/s (hover to see current wind gust speed)